| time (UTC) | temp F | wind direction | speed knots | gust knots | rain 1hr in | rain 24hr in | rain mn in | humidity % | barometer mb |
| 20260508165010 | 60 | 333 | 1.7 | 7.8 | 0.00 | 0.03 | 0.00 | 47 | 1018.4 |
| 20260508164528 | 58 | 332 | 1.7 | 8.7 | 0.00 | 0.03 | 0.00 | 44 | 1018.5 |
| 20260508164010 | 57 | 72 | 1.7 | 8.7 | 0.00 | 0.03 | 0.00 | 49 | 1018.5 |
| 20260508163508 | 58 | 121 | 2.6 | 7.0 | 0.00 | 0.03 | 0.00 | 45 | 1018.4 |
| 20260508163027 | 58 | 281 | 1.7 | 9.6 | 0.00 | 0.03 | 0.00 | 49 | 1018.4 |
| 20260508162506 | 59 | 5 | 3.5 | 9.6 | 0.00 | 0.03 | 0.00 | 49 | 1018.5 |
| 20260508162007 | 59 | 308 | 2.6 | 8.7 | 0.00 | 0.03 | 0.00 | 49 | 1018.5 |
| 20260508161524 | 59 | 327 | 1.7 | 9.6 | 0.00 | 0.03 | 0.00 | 48 | 1018.7 |
| 20260508161012 | 58 | 112 | 3.5 | 9.6 | 0.00 | 0.03 | 0.00 | 48 | 1018.8 |
| 20260508160509 | 59 | 92 | 2.6 | 9.6 | 0.00 | 0.03 | 0.00 | 51 | 1018.8 |
| 20260508160024 | 59 | 360 | 2.6 | 9.6 | 0.00 | 0.03 | 0.00 | 45 | 1018.8 |
| 20260508155514 | 60 | 19 | 1.7 | 9.6 | 0.00 | 0.03 | 0.00 | 48 | 1018.8 |
| 20260508155011 | 59 | 14 | 0.9 | 3.5 | 0.00 | 0.03 | 0.00 | 53 | 1018.9 |
| 20260508154535 | 59 | 285 | 0.9 | 6.1 | 0.00 | 0.03 | 0.00 | 53 | 1018.9 |
| 20260508154009 | 58 | 314 | 1.7 | 6.1 | 0.00 | 0.03 | 0.00 | 53 | 1018.9 |
| 20260508153511 | 57 | 309 | 1.7 | 5.2 | 0.00 | 0.03 | 0.00 | 51 | 1018.9 |
| 20260508153025 | 56 | 118 | 1.7 | 5.2 | 0.00 | 0.03 | 0.00 | 52 | 1018.9 |
| 20260508152506 | 57 | 26 | 2.6 | 7.0 | 0.00 | 0.03 | 0.00 | 50 | 1018.9 |
| 20260508152009 | 58 | 355 | 1.7 | 7.0 | 0.00 | 0.03 | 0.00 | 47 | 1018.9 |
| 20260508151532 | 57 | 340 | 1.7 | 3.5 | 0.00 | 0.03 | 0.00 | 44 | 1018.9 |
| 20260508151013 | 56 | 330 | 0.9 | 7.0 | 0.00 | 0.03 | 0.00 | 49 | 1019.0 |
| 20260508150509 | 56 | 360 | 0.9 | 7.0 | 0.00 | 0.03 | 0.00 | 42 | 1019.0 |
| 20260508150029 | 56 | 45 | 1.7 | 4.3 | 0.00 | 0.03 | 0.00 | 45 | 1019.0 |
| 20260508145511 | 56 | 319 | 1.7 | 4.3 | 0.00 | 0.03 | 0.00 | 41 | 1019.0 |
| 20260508145007 | 55 | 319 | 0.0 | 3.5 | 0.00 | 0.03 | 0.00 | 56 | 1018.9 |
| 20260508144507 | 54 | 319 | 0.9 | 3.5 | 0.00 | 0.03 | 0.00 | 47 | 1019.0 |
| 20260508144006 | 53 | 319 | 0.9 | 2.6 | 0.00 | 0.03 | 0.00 | 61 | 1019.0 |
| 20260508143510 | 53 | 319 | 0.0 | 4.3 | 0.00 | 0.03 | 0.00 | 42 | 1019.0 |
| 20260508143008 | 54 | 319 | 1.7 | 4.3 | 0.00 | 0.03 | 0.00 | 47 | 1019.1 |
| 20260508142504 | 52 | 319 | 0.0 | 0.0 | 0.00 | 0.03 | 0.00 | 66 | 1019.2 |
| 20260508142006 | 52 | 319 | 0.0 | 0.0 | 0.00 | 0.03 | 0.00 | 70 | 1019.2 |
| 20260508141516 | 52 | 319 | 0.0 | 0.0 | 0.00 | 0.03 | 0.00 | 69 | 1019.2 |
| 20260508141010 | 52 | 319 | 0.0 | 0.0 | 0.00 | 0.03 | 0.00 | 70 | 1019.1 |
| 20260508140506 | 52 | 319 | 0.0 | 0.0 | 0.00 | 0.03 | 0.00 | 50 | 1019.2 |
| 20260508140030 | 51 | 319 | 0.0 | 0.0 | 0.00 | 0.03 | 0.00 | 68 | 1019.2 |
| 20260508135510 | 49 | 319 | 0.0 | 0.0 | 0.00 | 0.03 | 0.00 | 71 | 1019.2 |
| 20260508135004 | 49 | 319 | 0.0 | 0.0 | 0.00 | 0.03 | 0.00 | 73 | 1019.2 |
| 20260508134520 | 49 | 319 | 0.0 | 0.0 | 0.00 | 0.03 | 0.00 | 79 | 1019.2 |
| 20260508134008 | 48 | 319 | 0.0 | 0.0 | 0.00 | 0.03 | 0.00 | 77 | 1019.1 |
| 20260508133512 | 47 | 319 | 0.0 | 1.7 | 0.00 | 0.03 | 0.00 | 77 | 1019.1 |
| 20260508133012 | 46 | 319 | 0.0 | 1.7 | 0.00 | 0.03 | 0.00 | 76 | 1019.0 |
| 20260508132506 | 47 | 319 | 0.0 | 2.6 | 0.00 | 0.03 | 0.00 | 71 | 1018.9 |
| 20260508132011 | 47 | 319 | 0.0 | 2.6 | 0.00 | 0.03 | 0.00 | 66 | 1019.0 |
| 20260508131509 | 47 | 319 | 0.0 | 1.7 | 0.00 | 0.03 | 0.00 | 62 | 1019.1 |
| 20260508131006 | 47 | 319 | 0.0 | 1.7 | 0.00 | 0.03 | 0.00 | 58 | 1019.0 |
| 20260508130510 | 46 | 319 | 0.0 | 1.7 | 0.00 | 0.03 | 0.00 | 62 | 1019.0 |
| 20260508130018 | 46 | 319 | 0.0 | 1.7 | 0.00 | 0.03 | 0.00 | 66 | 1019.0 |
| 20260508125509 | 45 | 319 | 0.0 | 1.7 | 0.00 | 0.03 | 0.00 | 78 | 1019.1 |
| 20260508125010 | 44 | 319 | 0.0 | 1.7 | 0.00 | 0.03 | 0.00 | 76 | 1019.0 |
| 20260508124529 | 43 | 319 | 0.0 | 0.0 | 0.00 | 0.03 | 0.00 | 81 | 1018.9 |
| 20260508124004 | 42 | 319 | 0.0 | 0.9 | 0.00 | 0.03 | 0.00 | 83 | 1018.9 |
| 20260508123507 | 42 | 319 | 0.0 | 0.9 | 0.00 | 0.03 | 0.00 | 87 | 1018.9 |
| 20260508123024 | 41 | 319 | 0.0 | 1.7 | 0.00 | 0.03 | 0.00 | 88 | 1018.8 |
| 20260508122510 | 41 | 319 | 0.0 | 1.7 | 0.00 | 0.03 | 0.00 | 91 | 1018.8 |
| 20260508122010 | 40 | 319 | 0.0 | 0.0 | 0.00 | 0.04 | 0.00 | 92 | 1018.8 |
| 20260508121519 | 39 | 319 | 0.0 | 0.0 | 0.00 | 0.04 | 0.00 | 93 | 1018.8 |
| 20260508121008 | 39 | 319 | 0.0 | 0.0 | 0.00 | 0.04 | 0.00 | 94 | 1018.7 |
| 20260508120508 | 38 | 319 | 0.0 | 0.0 | 0.00 | 0.04 | 0.00 | 95 | 1018.6 |
| 20260508120014 | 37 | 319 | 0.0 | 0.0 | 0.00 | 0.04 | 0.00 | 95 | 1018.6 |
| 20260508115510 | 37 | 319 | 0.0 | 0.0 | 0.00 | 0.04 | 0.00 | 95 | 1018.5 |
| 20260508115003 | 36 | 319 | 0.0 | 0.0 | 0.00 | 0.04 | 0.00 | 95 | 1018.6 |
| 20260508114512 | 36 | 319 | 0.0 | 0.0 | 0.00 | 0.04 | 0.00 | 95 | 1018.4 |
| 20260508114008 | 36 | 319 | 0.0 | 0.0 | 0.00 | 0.04 | 0.00 | 95 | 1018.2 |
| 20260508113508 | 36 | 319 | 0.0 | 0.0 | 0.00 | 0.05 | 0.00 | 95 | 1018.1 |
| 20260508113022 | 35 | 319 | 0.0 | 0.0 | 0.00 | 0.05 | 0.00 | 95 | 1018.1 |
| 20260508112509 | 34 | 319 | 0.0 | 0.0 | 0.00 | 0.06 | 0.00 | 95 | 1017.9 |
| 20260508112009 | 34 | 319 | 0.0 | 0.0 | 0.00 | 0.06 | 0.00 | 95 | 1017.9 |
| 20260508111522 | 34 | 319 | 0.0 | 0.0 | 0.00 | 0.06 | 0.00 | 95 | 1017.8 |
| 20260508111011 | 33 | 319 | 0.0 | 0.0 | 0.00 | 0.06 | 0.00 | 95 | 1017.7 |
| 20260508110507 | 33 | 319 | 0.0 | 0.0 | 0.00 | 0.06 | 0.00 | 95 | 1017.7 |
| 20260508110016 | 33 | 319 | 0.0 | 0.0 | 0.00 | 0.06 | 0.00 | 95 | 1017.7 |
| 20260508105507 | 33 | 334 | 0.0 | 0.0 | 0.00 | 0.06 | 0.00 | 95 | 1017.7 |
| 20260508105007 | 33 | 334 | 0.0 | 0.0 | 0.00 | 0.06 | 0.00 | 95 | 1017.7 |
| 20260508104512 | 33 | 334 | 0.0 | 0.0 | 0.00 | 0.06 | 0.00 | 94 | 1017.5 |
| 20260508104007 | 33 | 334 | 0.0 | 0.0 | 0.00 | 0.06 | 0.00 | 95 | 1017.4 |
| 20260508103507 | 33 | 334 | 0.0 | 0.0 | 0.00 | 0.06 | 0.00 | 95 | 1017.2 |
| 20260508103020 | 33 | 51 | 0.0 | 0.0 | 0.00 | 0.06 | 0.00 | 95 | 1017.2 |
| 20260508102507 | 34 | 51 | 0.0 | 0.0 | 0.00 | 0.06 | 0.00 | 95 | 1017.0 |
| 20260508102011 | 34 | 51 | 0.0 | 0.0 | 0.00 | 0.06 | 0.00 | 95 | 1017.0 |
| 20260508101516 | 34 | 51 | 0.0 | 0.9 | 0.00 | 0.06 | 0.00 | 95 | 1017.0 |
| 20260508101008 | 34 | 51 | 0.0 | 0.9 | 0.00 | 0.06 | 0.00 | 95 | 1017.0 |
| 20260508100507 | 35 | 51 | 0.0 | 0.9 | 0.00 | 0.06 | 0.00 | 95 | 1016.8 |
| 20260508100026 | 35 | 51 | 0.0 | 1.7 | 0.00 | 0.06 | 0.00 | 95 | 1016.7 |
| 20260508095507 | 35 | 51 | 0.0 | 1.7 | 0.00 | 0.06 | 0.00 | 95 | 1016.7 |
| 20260508095008 | 35 | 51 | 0.0 | 1.7 | 0.00 | 0.06 | 0.00 | 95 | 1016.8 |
| 20260508094540 | 35 | 51 | 0.0 | 0.9 | 0.00 | 0.06 | 0.00 | 95 | 1016.7 |
| 20260508094007 | 35 | 51 | 0.0 | 0.9 | 0.00 | 0.06 | 0.00 | 95 | 1016.8 |
| 20260508093507 | 35 | 51 | 0.0 | 0.0 | 0.00 | 0.06 | 0.00 | 95 | 1016.7 |
| 20260508093026 | 35 | 51 | 0.0 | 0.9 | 0.00 | 0.06 | 0.00 | 95 | 1016.8 |
| 20260508092514 | 36 | 51 | 0.0 | 0.9 | 0.00 | 0.06 | 0.00 | 95 | 1016.7 |
| 20260508092007 | 36 | 51 | 0.0 | 0.0 | 0.00 | 0.06 | 0.00 | 95 | 1016.8 |
| 20260508091539 | 36 | 51 | 0.0 | 0.0 | 0.00 | 0.06 | 0.00 | 95 | 1016.7 |
| 20260508091006 | 36 | 51 | 0.0 | 0.0 | 0.00 | 0.07 | 0.00 | 95 | 1016.7 |
| 20260508090510 | 36 | 51 | 0.0 | 0.9 | 0.00 | 0.07 | 0.00 | 95 | 1016.7 |
| 20260508090018 | 37 | 51 | 0.0 | 0.9 | 0.00 | 0.07 | 0.00 | 95 | 1016.7 |
| 20260508085512 | 37 | 51 | 0.0 | 0.9 | 0.00 | 0.07 | 0.00 | 95 | 1016.7 |
| 20260508085002 | 37 | 51 | 0.0 | 0.9 | 0.00 | 0.07 | 0.00 | 95 | 1016.7 |
| 20260508084502 | 37 | 51 | 0.0 | 0.9 | 0.00 | 0.07 | 0.00 | 95 | 1016.7 |
| 20260508084004 | 37 | 51 | 0.0 | 1.7 | 0.00 | 0.07 | 0.00 | 95 | 1016.8 |
| 20260508083505 | 37 | 51 | 0.0 | 1.7 | 0.00 | 0.07 | 0.00 | 95 | 1016.7 |
| 20260508083003 | 37 | 51 | 0.0 | 1.7 | 0.00 | 0.07 | 0.00 | 95 | 1016.7 |
| 20260508082503 | 38 | 51 | 0.0 | 1.7 | 0.00 | 0.07 | 0.00 | 95 | 1016.7 |
| 20260508082003 | 38 | 51 | 0.0 | 1.7 | 0.00 | 0.07 | 0.00 | 95 | 1016.7 |
| 20260508081518 | 38 | 51 | 0.0 | 1.7 | 0.00 | 0.07 | 0.00 | 95 | 1016.6 |
| 20260508081004 | 38 | 51 | 0.0 | 0.9 | 0.00 | 0.07 | 0.00 | 95 | 1016.6 |
| 20260508080504 | 38 | 51 | 0.0 | 1.7 | 0.00 | 0.07 | 0.00 | 95 | 1016.6 |
| 20260508080004 | 38 | 51 | 0.0 | 1.7 | 0.00 | 0.07 | 0.00 | 95 | 1016.5 |
| 20260508075504 | 39 | 43 | 0.0 | 2.6 | 0.00 | 0.07 | 0.00 | 95 | 1016.5 |
| 20260508075003 | 39 | 43 | 0.0 | 2.6 | 0.00 | 0.07 | 0.00 | 95 | 1016.5 |
| 20260508074504 | 39 | 130 | 0.0 | 1.7 | 0.00 | 0.07 | 0.00 | 95 | 1016.5 |
| 20260508074003 | 39 | 130 | 0.0 | 1.7 | 0.00 | 0.07 | 0.00 | 95 | 1016.5 |
| 20260508073503 | 39 | 130 | 0.0 | 0.0 | 0.00 | 0.07 | 0.00 | 95 | 1016.5 |
| 20260508073004 | 39 | 130 | 0.0 | 0.0 | 0.00 | 0.07 | 0.00 | 95 | 1016.5 |
| 20260508072504 | 39 | 130 | 0.0 | 0.9 | 0.00 | 0.07 | 0.00 | 95 | 1016.5 |
| 20260508072004 | 39 | 130 | 0.0 | 1.7 | 0.00 | 0.07 | 0.00 | 95 | 1016.6 |
| 20260508071514 | 40 | 130 | 0.0 | 1.7 | 0.00 | 0.07 | 0.00 | 95 | 1016.6 |
| 20260508071003 | 40 | 130 | 0.0 | 0.9 | 0.00 | 0.07 | 0.00 | 95 | 1016.4 |
| 20260508070504 | 40 | 130 | 0.0 | 0.9 | 0.00 | 0.07 | 0.00 | 95 | 1016.4 |
| 20260508070003 | 40 | 130 | 0.0 | 0.9 | 0.00 | 0.07 | 0.00 | 95 | 1016.5 |
| 20260508065505 | 40 | 130 | 0.0 | 0.9 | 0.00 | 0.07 | 0.00 | 95 | 1016.6 |
| 20260508065003 | 40 | 130 | 0.0 | 0.9 | 0.00 | 0.07 | 0.00 | 95 | 1016.6 |
| 20260508064506 | 41 | 130 | 0.0 | 0.9 | 0.00 | 0.07 | 0.00 | 95 | 1016.7 |
| 20260508064002 | 41 | 130 | 0.0 | 1.7 | 0.00 | 0.07 | 0.00 | 95 | 1016.6 |
| 20260508063502 | 41 | 130 | 0.0 | 1.7 | 0.00 | 0.07 | 0.00 | 95 | 1016.6 |
| 20260508063007 | 41 | 130 | 0.0 | 0.9 | 0.00 | 0.08 | 0.00 | 95 | 1016.7 |
| 20260508062503 | 41 | 130 | 0.0 | 0.9 | 0.00 | 0.08 | 0.00 | 95 | 1016.8 |
| 20260508062002 | 42 | 130 | 0.0 | 0.9 | 0.00 | 0.08 | 0.00 | 95 | 1016.7 |
| 20260508061503 | 42 | 130 | 0.0 | 0.9 | 0.00 | 0.08 | 0.00 | 95 | 1016.8 |
| 20260508061002 | 42 | 130 | 0.0 | 1.7 | 0.00 | 0.08 | 0.00 | 95 | 1016.9 |
| 20260508060502 | 42 | 130 | 0.0 | 1.7 | 0.00 | 0.08 | 0.00 | 95 | 1016.7 |
| 20260508060008 | 42 | 236 | 0.0 | 0.9 | 0.00 | 0.08 | 0.00 | 95 | 1016.9 |
| 20260508055503 | 42 | 236 | 0.0 | 0.9 | 0.00 | 0.08 | 0.00 | 95 | 1017.0 |
| 20260508055014 | 42 | 236 | 0.0 | 0.9 | 0.00 | 0.08 | 0.00 | 95 | 1017.0 |
| 20260508054529 | 43 | 236 | 0.0 | 0.9 | 0.00 | 0.08 | 0.00 | 95 | 1017.0 |
| 20260508054009 | 43 | 236 | 0.0 | 1.7 | 0.00 | 0.08 | 0.00 | 95 | 1017.0 |
| 20260508053507 | 44 | 236 | 0.0 | 1.7 | 0.00 | 0.08 | 0.00 | 95 | 1016.9 |
| 20260508053020 | 44 | 236 | 0.0 | 1.7 | 0.00 | 0.08 | 0.00 | 95 | 1016.8 |
| 20260508052506 | 44 | 236 | 0.0 | 1.7 | 0.00 | 0.08 | 0.00 | 95 | 1016.7 |
| 20260508052010 | 44 | 236 | 0.0 | 1.7 | 0.00 | 0.08 | 0.00 | 95 | 1016.8 |
| 20260508051519 | 44 | 236 | 0.0 | 1.7 | 0.00 | 0.08 | 0.00 | 95 | 1017.0 |
| 20260508051011 | 44 | 236 | 0.0 | 2.6 | 0.00 | 0.08 | 0.00 | 95 | 1016.8 |
| 20260508050510 | 44 | 236 | 0.0 | 2.6 | 0.00 | 0.08 | 0.00 | 95 | 1016.8 |
| 20260508050021 | 44 | 284 | 0.0 | 2.6 | 0.00 | 0.08 | 0.00 | 95 | 1016.7 |
| 20260508045506 | 44 | 310 | 0.0 | 1.7 | 0.00 | 0.08 | 0.00 | 95 | 1016.7 |
| 20260508045013 | 44 | 310 | 0.0 | 1.7 | 0.00 | 0.08 | 0.00 | 95 | 1016.6 |
| 20260508044518 | 44 | 290 | 0.0 | 2.6 | 0.00 | 0.08 | 0.00 | 95 | 1016.6 |
| 20260508044010 | 45 | 290 | 0.0 | 3.5 | 0.00 | 0.08 | 0.00 | 95 | 1016.5 |
| 20260508043505 | 45 | 355 | 0.9 | 3.5 | 0.00 | 0.08 | 0.00 | 95 | 1016.4 |
| 20260508043025 | 45 | 355 | 0.0 | 1.7 | 0.00 | 0.08 | 0.00 | 95 | 1016.5 |
| 20260508042512 | 45 | 355 | 0.9 | 1.7 | 0.00 | 0.08 | 0.00 | 95 | 1016.4 |
| 20260508042011 | 45 | 355 | 0.0 | 0.9 | 0.00 | 0.08 | 0.00 | 95 | 1016.5 |
| 20260508041525 | 45 | 355 | 0.0 | 3.5 | 0.00 | 0.08 | 0.00 | 95 | 1016.5 |
| 20260508041010 | 45 | 355 | 0.0 | 3.5 | 0.00 | 0.08 | 0.00 | 95 | 1016.3 |
| 20260508040507 | 45 | 311 | 0.0 | 1.7 | 0.00 | 0.08 | 0.00 | 95 | 1016.3 |
| 20260508040030 | 45 | 311 | 0.0 | 1.7 | 0.00 | 0.08 | 0.00 | 95 | 1016.3 |
| 20260508035506 | 45 | 311 | 0.0 | 1.7 | 0.00 | 0.08 | 0.08 | 95 | 1016.3 |
| 20260508035011 | 45 | 311 | 0.0 | 2.6 | 0.00 | 0.08 | 0.08 | 95 | 1016.2 |
| 20260508034520 | 45 | 345 | 0.9 | 2.6 | 0.00 | 0.08 | 0.08 | 95 | 1016.0 |
| 20260508034007 | 45 | 335 | 0.0 | 2.6 | 0.00 | 0.08 | 0.08 | 95 | 1016.0 |
| 20260508033507 | 44 | 335 | 0.0 | 3.5 | 0.00 | 0.08 | 0.08 | 95 | 1016.2 |
| 20260508033024 | 44 | 335 | 0.9 | 3.5 | 0.00 | 0.08 | 0.08 | 95 | 1016.3 |
| 20260508032508 | 44 | 256 | 0.0 | 0.9 | 0.00 | 0.08 | 0.08 | 95 | 1016.3 |
| 20260508032012 | 45 | 255 | 0.0 | 0.9 | 0.00 | 0.08 | 0.08 | 95 | 1016.2 |
| 20260508031523 | 44 | 256 | 0.0 | 1.7 | 0.00 | 0.08 | 0.08 | 95 | 1016.2 |
| 20260508031009 | 44 | 256 | 0.0 | 1.7 | 0.00 | 0.08 | 0.08 | 95 | 1016.2 |
| 20260508030512 | 44 | 255 | 0.0 | 1.7 | 0.00 | 0.08 | 0.08 | 95 | 1016.2 |
| 20260508030026 | 44 | 256 | 0.0 | 1.7 | 0.00 | 0.08 | 0.08 | 95 | 1016.2 |
| 20260508025512 | 44 | 256 | 0.0 | 0.9 | 0.00 | 0.08 | 0.08 | 95 | 1016.2 |
| 20260508025003 | 44 | 255 | 0.0 | 0.9 | 0.00 | 0.08 | 0.08 | 95 | 1016.1 |
| 20260508024503 | 44 | 255 | 0.0 | 0.9 | 0.00 | 0.08 | 0.08 | 95 | 1016.0 |
| 20260508024004 | 44 | 256 | 0.0 | 0.9 | 0.00 | 0.08 | 0.08 | 95 | 1015.9 |
| 20260508023504 | 44 | 256 | 0.0 | 0.9 | 0.00 | 0.08 | 0.08 | 95 | 1016.0 |
| 20260508023006 | 44 | 255 | 0.0 | 0.9 | 0.00 | 0.08 | 0.08 | 95 | 1015.9 |
| 20260508022503 | 44 | 256 | 0.0 | 1.7 | 0.00 | 0.09 | 0.08 | 95 | 1016.0 |
| 20260508022004 | 44 | 255 | 0.0 | 1.7 | 0.00 | 0.09 | 0.08 | 95 | 1015.9 |
| 20260508021504 | 44 | 255 | 0.0 | 0.9 | 0.00 | 0.09 | 0.08 | 95 | 1015.9 |
| 20260508021008 | 44 | 255 | 0.0 | 1.7 | 0.00 | 0.10 | 0.08 | 95 | 1016.0 |
| 20260508020503 | 44 | 256 | 0.0 | 1.7 | 0.00 | 0.10 | 0.08 | 95 | 1015.9 |
| 20260508020006 | 43 | 256 | 0.0 | 0.0 | 0.00 | 0.11 | 0.08 | 95 | 1015.8 |
| 20260508015502 | 43 | 256 | 0.0 | 0.0 | 0.00 | 0.12 | 0.08 | 95 | 1015.7 |
| 20260508015004 | 43 | 256 | 0.0 | 0.0 | 0.00 | 0.12 | 0.08 | 95 | 1015.6 |
| 20260508014511 | 43 | 256 | 0.0 | 0.0 | 0.00 | 0.12 | 0.08 | 95 | 1015.7 |
| 20260508014004 | 43 | 256 | 0.0 | 0.0 | 0.00 | 0.13 | 0.08 | 95 | 1015.7 |
| 20260508013503 | 43 | 255 | 0.0 | 0.0 | 0.00 | 0.13 | 0.08 | 95 | 1015.6 |
| 20260508013004 | 43 | 255 | 0.0 | 1.7 | 0.00 | 0.14 | 0.08 | 95 | 1015.5 |
| 20260508012505 | 43 | 255 | 0.0 | 1.7 | 0.00 | 0.14 | 0.08 | 95 | 1015.4 |
| 20260508012003 | 42 | 255 | 0.0 | 0.9 | 0.00 | 0.15 | 0.08 | 95 | 1015.4 |
| 20260508011509 | 42 | 256 | 0.0 | 0.0 | 0.00 | 0.16 | 0.08 | 94 | 1015.3 |
| 20260508011005 | 43 | 255 | 0.0 | 0.0 | 0.00 | 0.16 | 0.08 | 94 | 1015.2 |
| 20260508010502 | 43 | 255 | 0.0 | 0.0 | 0.00 | 0.17 | 0.08 | 95 | 1015.2 |
| 20260508010005 | 43 | 255 | 0.0 | 0.0 | 0.00 | 0.17 | 0.08 | 95 | 1015.2 |
| 20260508005507 | 43 | 256 | 0.0 | 6.1 | 0.00 | 0.17 | 0.08 | 95 | 1015.0 |
| 20260508005003 | 44 | 255 | 0.0 | 6.1 | 0.00 | 0.18 | 0.08 | 95 | 1014.9 |
| 20260508004505 | 44 | 247 | 0.0 | 1.7 | 0.00 | 0.18 | 0.08 | 95 | 1014.8 |
| 20260508004009 | 44 | 247 | 0.0 | 1.7 | 0.00 | 0.19 | 0.08 | 95 | 1014.7 |
| 20260508003507 | 44 | 247 | 0.0 | 1.7 | 0.00 | 0.19 | 0.08 | 95 | 1014.5 |
| 20260508003005 | 44 | 247 | 0.0 | 0.9 | 0.00 | 0.19 | 0.08 | 95 | 1014.6 |
| 20260508002503 | 44 | 247 | 0.0 | 0.0 | 0.00 | 0.19 | 0.08 | 95 | 1014.7 |
| 20260508002004 | 44 | 247 | 0.0 | 1.7 | 0.00 | 0.19 | 0.08 | 95 | 1014.6 |
| 20260508001537 | 44 | 247 | 0.0 | 1.7 | 0.00 | 0.19 | 0.08 | 95 | 1014.7 |
| 20260508001009 | 44 | 247 | 0.0 | 0.9 | 0.00 | 0.20 | 0.08 | 94 | 1014.6 |
| 20260508000508 | 45 | 247 | 0.0 | 0.0 | 0.00 | 0.20 | 0.08 | 94 | 1014.7 |
| 20260508000013 | 45 | 314 | 0.0 | 1.7 | 0.00 | 0.20 | 0.08 | 94 | 1014.6 |
| 20260507235503 | 45 | 314 | 0.0 | 1.7 | 0.00 | 0.20 | 0.08 | 95 | 1014.6 |
| 20260507235003 | 45 | 314 | 0.0 | 1.7 | 0.00 | 0.20 | 0.08 | 95 | 1014.6 |
| 20260507234510 | 45 | 314 | 0.0 | 1.7 | 0.00 | 0.20 | 0.08 | 94 | 1014.7 |
| 20260507234006 | 45 | 314 | 0.0 | 2.6 | 0.00 | 0.20 | 0.08 | 94 | 1014.7 |
| 20260507233503 | 45 | 237 | 0.0 | 2.6 | 0.00 | 0.20 | 0.08 | 94 | 1014.7 |
| 20260507233019 | 45 | 237 | 0.0 | 2.6 | 0.00 | 0.20 | 0.08 | 94 | 1014.7 |
| 20260507232508 | 46 | 247 | 0.0 | 1.7 | 0.00 | 0.20 | 0.08 | 95 | 1014.8 |
| 20260507232005 | 45 | 247 | 0.0 | 1.7 | 0.00 | 0.20 | 0.08 | 95 | 1014.8 |
| 20260507231510 | 45 | 162 | 0.0 | 2.6 | 0.01 | 0.21 | 0.08 | 94 | 1014.8 |
| 20260507231004 | 45 | 98 | 0.0 | 2.6 | 0.01 | 0.21 | 0.08 | 94 | 1014.8 |
| 20260507230506 | 45 | 85 | 0.0 | 2.6 | 0.01 | 0.21 | 0.08 | 94 | 1014.9 |
| 20260507230020 | 45 | 136 | 0.9 | 5.2 | 0.01 | 0.21 | 0.08 | 94 | 1014.8 |
| 20260507225506 | 45 | 318 | 0.0 | 5.2 | 0.01 | 0.21 | 0.08 | 94 | 1014.7 |
| 20260507225004 | 45 | 347 | 0.0 | 1.7 | 0.01 | 0.21 | 0.08 | 94 | 1014.8 |
| 20260507224529 | 45 | 347 | 0.0 | 1.7 | 0.02 | 0.21 | 0.08 | 94 | 1014.8 |
| 20260507224004 | 45 | 221 | 0.0 | 1.7 | 0.02 | 0.21 | 0.08 | 94 | 1014.9 |
| 20260507223506 | 45 | 188 | 0.0 | 2.6 | 0.02 | 0.21 | 0.08 | 94 | 1014.8 |
| 20260507223020 | 45 | 335 | 0.0 | 2.6 | 0.02 | 0.21 | 0.08 | 94 | 1014.7 |
| 20260507222505 | 46 | 294 | 0.0 | 0.9 | 0.02 | 0.21 | 0.08 | 95 | 1014.6 |
| 20260507222007 | 45 | 294 | 0.0 | 0.9 | 0.03 | 0.21 | 0.08 | 94 | 1014.6 |
| 20260507221524 | 45 | 294 | 0.0 | 0.9 | 0.02 | 0.20 | 0.07 | 94 | 1014.6 |
| 20260507221005 | 45 | 294 | 0.0 | 0.0 | 0.02 | 0.20 | 0.07 | 94 | 1014.6 |
| 20260507220505 | 45 | 294 | 0.0 | 0.0 | 0.02 | 0.20 | 0.07 | 94 | 1014.4 |
| 20260507220018 | 45 | 294 | 0.0 | 1.7 | 0.02 | 0.20 | 0.07 | 94 | 1014.4 |
| 20260507215505 | 45 | 294 | 0.0 | 1.7 | 0.02 | 0.20 | 0.07 | 94 | 1014.4 |
| 20260507215005 | 45 | 294 | 0.0 | 1.7 | 0.02 | 0.20 | 0.07 | 94 | 1014.4 |
| 20260507214508 | 45 | 294 | 0.0 | 2.6 | 0.01 | 0.19 | 0.06 | 93 | 1014.4 |
| 20260507214007 | 46 | 294 | 0.0 | 2.6 | 0.01 | 0.19 | 0.06 | 94 | 1014.3 |
| 20260507213508 | 46 | 140 | 0.0 | 3.5 | 0.01 | 0.19 | 0.06 | 93 | 1014.4 |
| 20260507213008 | 47 | 173 | 0.0 | 3.5 | 0.01 | 0.19 | 0.06 | 94 | 1014.3 |
| 20260507212507 | 47 | 17 | 0.0 | 0.0 | 0.01 | 0.19 | 0.06 | 94 | 1014.1 |
| 20260507212007 | 47 | 17 | 0.0 | 2.6 | 0.00 | 0.18 | 0.05 | 93 | 1014.2 |
| 20260507211512 | 47 | 17 | 0.0 | 2.6 | 0.00 | 0.18 | 0.05 | 94 | 1014.0 |
| 20260507211010 | 47 | 254 | 0.0 | 3.5 | 0.00 | 0.18 | 0.05 | 93 | 1014.0 |
| 20260507210504 | 48 | 140 | 0.0 | 3.5 | 0.00 | 0.18 | 0.05 | 93 | 1014.0 |
| 20260507210023 | 48 | 238 | 0.0 | 2.6 | 0.00 | 0.18 | 0.05 | 93 | 1013.8 |
| 20260507205506 | 48 | 9 | 0.0 | 2.6 | 0.00 | 0.18 | 0.05 | 93 | 1013.7 |
| 20260507205006 | 48 | 9 | 0.0 | 1.7 | 0.00 | 0.18 | 0.05 | 93 | 1013.7 |
| 20260507204519 | 48 | 9 | 0.0 | 1.7 | 0.00 | 0.18 | 0.05 | 93 | 1013.6 |
| 20260507204006 | 48 | 5 | 0.0 | 1.7 | 0.00 | 0.18 | 0.05 | 93 | 1013.5 |
| 20260507203504 | 48 | 303 | 0.0 | 1.7 | 0.00 | 0.18 | 0.05 | 92 | 1013.5 |
| 20260507203016 | 49 | 323 | 0.0 | 1.7 | 0.00 | 0.18 | 0.05 | 92 | 1013.6 |
| 20260507202506 | 49 | 236 | 0.0 | 1.7 | 0.00 | 0.18 | 0.05 | 92 | 1013.7 |
| 20260507202007 | 49 | 261 | 0.0 | 1.7 | 0.00 | 0.18 | 0.05 | 92 | 1013.7 |
| 20260507201524 | 50 | 238 | 0.0 | 1.7 | 0.00 | 0.18 | 0.05 | 92 | 1013.6 |
| 20260507201005 | 50 | 292 | 0.0 | 4.3 | 0.00 | 0.18 | 0.05 | 91 | 1013.6 |
| 20260507200508 | 50 | 344 | 0.0 | 4.3 | 0.00 | 0.18 | 0.05 | 91 | 1013.4 |
| 20260507200015 | 50 | 323 | 0.0 | 2.6 | 0.00 | 0.18 | 0.05 | 92 | 1013.3 |
| 20260507195508 | 50 | 277 | 0.0 | 2.6 | 0.00 | 0.18 | 0.05 | 92 | 1013.3 |
| 20260507195007 | 51 | 277 | 0.9 | 2.6 | 0.00 | 0.18 | 0.05 | 92 | 1013.3 |
| 20260507194510 | 51 | 267 | 0.0 | 2.6 | 0.00 | 0.18 | 0.05 | 92 | 1013.4 |
| 20260507194009 | 51 | 327 | 0.0 | 3.5 | 0.00 | 0.18 | 0.05 | 92 | 1013.4 |
| 20260507193508 | 51 | 200 | 0.0 | 3.5 | 0.00 | 0.18 | 0.05 | 91 | 1013.4 |
| 20260507193009 | 51 | 140 | 0.0 | 2.6 | 0.00 | 0.18 | 0.05 | 91 | 1013.4 |
| 20260507192505 | 52 | 140 | 0.0 | 2.6 | 0.00 | 0.18 | 0.05 | 92 | 1013.4 |
| 20260507192006 | 52 | 296 | 0.0 | 1.7 | 0.00 | 0.18 | 0.05 | 91 | 1013.4 |
| 20260507191525 | 52 | 296 | 0.9 | 1.7 | 0.00 | 0.18 | 0.05 | 92 | 1013.5 |
| 20260507191006 | 52 | 263 | 0.0 | 1.7 | 0.00 | 0.18 | 0.05 | 92 | 1013.4 |
| 20260507190506 | 52 | 313 | 0.0 | 1.7 | 0.00 | 0.18 | 0.05 | 92 | 1013.5 |
| 20260507190022 | 52 | 313 | 0.0 | 1.7 | 0.00 | 0.18 | 0.05 | 92 | 1013.7 |
| 20260507185508 | 52 | 313 | 0.0 | 3.5 | 0.00 | 0.18 | 0.05 | 92 | 1013.7 |
| 20260507185006 | 52 | 229 | 0.9 | 3.5 | 0.00 | 0.18 | 0.05 | 91 | 1013.9 |
| 20260507184519 | 53 | 286 | 0.0 | 3.5 | 0.00 | 0.18 | 0.05 | 91 | 1013.8 |
| 20260507184008 | 53 | 288 | 0.0 | 7.8 | 0.00 | 0.18 | 0.05 | 91 | 1013.9 |
| 20260507183509 | 54 | 323 | 0.0 | 7.8 | 0.00 | 0.18 | 0.05 | 91 | 1013.8 |
| 20260507183017 | 54 | 237 | 0.9 | 2.6 | 0.00 | 0.18 | 0.05 | 92 | 1013.6 |
| 20260507182506 | 53 | 227 | 0.0 | 3.5 | 0.00 | 0.18 | 0.05 | 92 | 1013.4 |
| 20260507182010 | 53 | 151 | 0.9 | 5.2 | 0.00 | 0.18 | 0.05 | 92 | 1013.4 |
| 20260507181511 | 53 | 232 | 1.7 | 5.2 | 0.00 | 0.18 | 0.05 | 91 | 1013.5 |
| 20260507181008 | 53 | 168 | 0.9 | 5.2 | 0.00 | 0.18 | 0.05 | 92 | 1013.5 |
| 20260507180510 | 53 | 321 | 0.0 | 6.1 | 0.00 | 0.18 | 0.05 | 92 | 1013.6 |
| 20260507180034 | 52 | 176 | 0.9 | 6.1 | 0.00 | 0.18 | 0.05 | 93 | 1013.5 |
| 20260507175507 | 52 | 291 | 0.9 | 4.3 | 0.00 | 0.18 | 0.05 | 93 | 1013.6 |
| 20260507175008 | 52 | 293 | 0.0 | 2.6 | 0.00 | 0.18 | 0.05 | 93 | 1013.5 |
| 20260507174519 | 52 | 271 | 0.0 | 2.6 | 0.00 | 0.18 | 0.05 | 93 | 1013.6 |
| 20260507174004 | 52 | 201 | 0.0 | 4.3 | 0.00 | 0.18 | 0.05 | 93 | 1013.6 |
| 20260507173507 | 52 | 234 | 0.9 | 4.3 | 0.00 | 0.18 | 0.05 | 94 | 1013.5 |
| 20260507173027 | 52 | 260 | 0.0 | 1.7 | 0.00 | 0.18 | 0.05 | 93 | 1013.5 |
| 20260507172509 | 52 | 202 | 0.0 | 1.7 | 0.00 | 0.18 | 0.05 | 93 | 1013.6 |
| 20260507172010 | 52 | 202 | 0.0 | 2.6 | 0.00 | 0.18 | 0.05 | 93 | 1013.5 |
| 20260507171519 | 53 | 207 | 0.0 | 3.5 | 0.00 | 0.18 | 0.05 | 93 | 1013.4 |
| 20260507171014 | 53 | 9 | 0.0 | 3.5 | 0.00 | 0.18 | 0.05 | 93 | 1013.4 |
| 20260507170506 | 53 | 142 | 0.0 | 2.6 | 0.00 | 0.18 | 0.05 | 93 | 1013.4 |
| 20260507170036 | 53 | 142 | 0.0 | 2.6 | 0.00 | 0.18 | 0.05 | 93 | 1013.4 |
| 20260507165506 | 53 | 142 | 0.0 | 2.6 | 0.00 | 0.18 | 0.05 | 93 | 1013.4 |